Location: Gad�tanya
(48.0500°N, 20.8500°E)
Time: 11:14:00
(UTC+00:00)

NOSS 3-4 (A) - Pass Details

Date: 05 July 2020
Orbit: 892 x 1320 km, 63.4° (Epoch: 12 July)

Event Time Altitude Azimuth Distance (km) Brightness Sun altitude
Rises 20:15:51 0° 318° (NW) 3,755 8.6 -12.1°
Reaches altitude 10° 20:18:27 10° 324° (NW) 2,860 7.5 -12.4°
Maximum altitude 20:25:04 51° 39° (NE) 1,396 4.4 -13.0°
Enters shadow 20:32:22 10° 114° (ESE) 3,152 5.7 -13.6°
